Погода в Пискалах

Россия / Самарская область     53°37′57″N   49°49′13″E
темп.,
°C
ветер,
м/с
пор.,
м/с
влажн.,
%
обл.,
%
осадки,
мм/ч
давл.,
гПа
погр.,
м
7 мая, пт
пт701:00+12ю4764100 0.0 101797
04:00+10ю496798 0.0 1017147
07:00+11ю41067100 0.0 1017251
10:00+15ююз6950100 0.0 1017970
13:00+18ююз7942100 0.0 10172450
16:00+18ююз684391 0.0 10152331
19:00+16ю495499 0.0 1015263
22:00+13ююз41057100 0.0 1016218
8 мая, сб
сб801:00+12ююв2264100 0.0 101634
04:00+11зюз2276100 0.5 101624
07:00+11вюв377995 0.2 1016181
10:00+16ю465925 0.3 1016995
13:00+18ююз464865 0.9 10151977
16:00+19ю464730 0.9 10141341
19:00+17юв356097 0.0 1014105
22:00+13юв446254 0.0 101454
9 мая, вс
вс901:00+12юв486814 0.0 1013120
04:00+11ююв337174 0.0 101342
07:00+13ююв357411 0.0 1014145
10:00+19ююв5652100 0.0 1013886
13:00+21ю4538100 0.0 10131720
16:00+22ю453943 0.0 10131849
19:00+19юв3455100 0.0 101354
22:00+17вюв4953100 0.0 1014165
10 мая, пн
пн1001:00+16юв3662100 0.0 101484
04:00+15юв3467100 0.0 101655
07:00+16юв3771100 0.0 1017167
10:00+21юв4548100 0.0 1019540
13:00+24вюв3439100 0.0 10191744
16:00+24в4439100 0.0 10202004
19:00+20всв3457100 0.0 102166
22:00+17ссв3567100 0.0 102289
11 мая, вт
вт1101:00+15ссв6108959 0.0 1023246
04:00+14ссв4891100 0.0 1024240
07:00+14св5791100 0.0 1025271
10:00+18св447099 0.0 1026585
13:00+21св4458100 0.0 1026995
16:00+22св5555100 0.0 10261289
19:00+20св4767100 0.0 1026299
22:00+16св5117448 0.0 1027282